AirNav   Everest Fuels
 
 1493 users online  

96G Cowley Field Airport
Sandusky, Michigan, USA

GOING TO SANDUSKY?


FAA INFORMATION EFFECTIVE 18 JUNE 2020

Location

FAA Identifier: 96G
Lat/Long: 43-22-32.6000N 082-49-07.8000W
43-22.543333N 082-49.130000W
43.3757222,-82.8188333
(estimated)
Elevation: 770 ft. / 235 m (estimated)
Variation: 07W (1985)
From city: 3 miles S of SANDUSKY, MI
Time zone: UTC -4 (UTC -5 during Standard Time)
Zip code: 48471

Airport Operations

Airport use: Open to the public
Activation date: 04/1971
Control tower: no
ARTCC: CLEVELAND CENTER
FSS: LANSING FLIGHT SERVICE STATION
NOTAMs facility: LAN (NOTAM-D service available)
Attendance: 
Wind indicator: yes
Segmented circle: no

Airport Communications

CTAF: 122.9

Airport Services

Parking: tiedowns
Airframe service: NONE
Powerplant service: NONE
Bottled oxygen: NONE
Bulk oxygen: NONE

Runway Information

Runway 9/27

Dimensions: 2600 x 60 ft. / 792 x 18 m
Surface: turf, in good condition
Runway edge markings: RWY MKD WITH 3 FT YELLOW CONES.
RUNWAY 9  RUNWAY 27
Latitude: 43-22.536667N43-22.550000N
Longitude: 082-49.423333W082-48.836667W
Elevation: 770.0 ft.768.0 ft.
Traffic pattern: leftleft
Runway heading: 095 magnetic, 088 true275 magnetic, 268 true
Runway end identifier lights: nono
Obstructions: 63 ft. tree, 1089 ft. from runway, 17:1 slope to clear150 ft. pline, 5500 ft. from runway, 36:1 slope to clear

Airport Ownership and Management from official FAA records

Ownership: Privately-owned
Owner: DALE COWLEY
1515 SO SANDUSKY RD
SANDUSKY, MI 48471
Phone 810-837-0111
Manager: DALE COWLEY
1515 SO SANDUSKY RD
SANDUSKY, MI 48471
Phone 810-837-0111

Airport Operational Statistics

Aircraft based on the field: 1
Single engine airplanes: 1
    
Aircraft operations: 60/year *
83% transient general aviation
17% local general aviation
* for 12-month period ending 31 December 2018

Additional Remarks

DEER & TURKEYS ON & INVOF ARPT.
BE ALERT FOR CLOSE PROXIMITY OF POWER POLES ALONG TWY ON W END.
FOR CD CTC CLEVELAND ARTCC AT 440-774-0224, IF UNA CTC 440-774-0490.
SNOW REMOVAL IREG, TO VFY COND CALL 810-837-0111.

Instrument Procedures

There are no published instrument procedures at 96G.

Some nearby airports with instrument procedures:

77G - Marlette Township Airport (12 nm W)
KBAX - Huron County Memorial Airport (25 nm N)
D95 - Dupont-Lapeer Airport (27 nm SW)
KCFS - Tuscola Area Airport (28 nm W)
KPHN - St Clair County International Airport (31 nm SE)
 
Loc | Ops | Rwys | IFR | FBO | Links
Com | Nav | Svcs | Stats | Notes
Area around 96G (Cowley Field Airport)
 
Road maps at: MapQuest Bing Google
 
Aerial photo
WARNING: Photo may not be current or correct
Aerial photo of 96G (Cowley Field Airport)
Photo by Roy Carlson, Plainwell, MI

Do you have a better or more recent aerial photo of Cowley Field Airport that you would like to share? If so, please send us your photo.

 
Sectional chart

 
Airport distance calculator
Flying to Cowley Field Airport? Find the distance to fly.

From to 96G

Sunrise and sunset
Times for 13-Jul-2020
 Local
(UTC-4)
 Zulu
(UTC)
Morning civil twilight05:3009:30
Sunrise06:0510:05
Sunset21:1001:10
Evening civil twilight21:4401:44

Current date and time
Zulu (UTC)  13-Jul-2020 18:21:27
Local (UTC-4)  13-Jul-2020 14:21:27
 
METAR
KBAX 
25nm N 
131755Z AUTO 34008G15KT 290V350 10SM SCT041 BKN047 BKN055 24/14 A2998 RMK AO2 T02370135 10237 20183
KD95 
27nm SW 
131755Z AUTO 32009KT 10SM SCT041 BKN060 25/15 A2999 RMK AO2 T02490147 10251 20186
KCFS 
28nm W 
131755Z AUTO 36007KT 10SM SCT046 SCT050 26/14 A2998 RMK AO2 T02610136 10266 20201
KPHN 
31nm SE 
131757Z AUTO 04007G15KT 020V080 10SM SCT029 BKN046 OVC060 23/16 A2997 RMK AO2
CYZR 
32nm SE 
131700Z AUTO 01011KT 9SM OVC060 21/17 A2997 RMK SLP149 DENSITY ALT 1300FT
KP58 
38nm N 
131751Z AUTO VRB03KT 22/14 A2997 RMK AO1 SLP142 T02220139 10222 20194 50002
KMTC 
46nm S 
131756Z 36011KT 10SM FEW044 BKN060 25/16 A2995 RMK AO2A SLP144 T02500164 10254 20190 50001
KHYX 
46nm W 
131755Z AUTO 01007KT 10SM CLR 25/14 A2998 RMK AO2
KFNT 
48nm SW 
131753Z 01008G15KT 10SM -RA FEW043 BKN055 24/13 A2998 RMK AO2 RAB46 SLP150 P0000 60000 T02440133 10244 20172 50001 $
KPTK 
50nm SW 
131753Z 34006G16KT 10SM FEW041 BKN055 24/13 A2997 RMK AO2 SLP143 T02390133 10256 20189 50000
TAF
CYZR 
32nm SE 
131340Z 1314/1402 35010KT P6SM SCT015 SCT070 TEMPO 1314/1316 BKN015 BKN070 FM131600 35010KT P6SM BKN050 TEMPO 1316/1321 P6SM -SHRA OVC050 FM132100 01010KT P6SM SCT050 RMK FCST BASED ON AUTO OBS. NXT FCST BY 132000Z
NOTAMs
Click for the latest NOTAMs
NOTAMs are issued by the DoD/FAA and will open in a separate window not controlled by AirNav.

 

 
 

Would you like to see your business listed on this page?

 If your business provides an interesting product or service to pilots, flight crews, aircraft, or users of the Cowley Field Airport, you should consider listing it here.  To start the listing process, click on the button below
 
Add a business
 

Other Pages about Cowley Field Airport

Page from the Michigan Airport Directory (PDF)
 
Update a link
 
Copyright © AirNav, LLC. All rights reserved. Privacy Policy  Contact